User: anonymous   Login
Location: Rotheul
(50.2849°N, 11.2349°E)
Time: 06:45:08
(UTC+02:00)
Language:

ISS - Orbit

View from above orbital plane
View from above orbital plane
View from above satellite
View from above satellite

Ground track
Ground track

The orbit data is extracted from the following two-line orbital elements,

1 25544U 98067A   18174.37268096  .00016717  00000-0  10270-3 0  9010
2 25544  51.6408 347.8804 0003832 224.0054 136.0794 15.53936522 39477
Epoch (UTC): 23 June 2018 08:56:39
Eccentricity: 0.0003832
inclination: 51.6408°
perigee height: 402 km
apogee height: 408 km
right ascension of ascending node: 347.8804°
argument of perigee: 224.0054°
revolutions per day: 15.53936522
mean anomaly at epoch: 136.0794°
orbit number at epoch: 3947

The dashed part of the orbit path shows where the satellite is in the earth's shadow,  

DLR